Regional Weather Roundup
Issued by NWS

Home | Current Version | Previous Version | Graphics & Text | Print | Product List | Glossary On
Versions: 1 2 3 4 5 6 7 8 9 10 11 12 13 14 15 16 17 18 19 20 21 22 23 24 25 26 27 28 29 30 31 32 33 34 35 36 37 38 39 40 41 42 43 44 45 46 47 48 49 50
000
ASUS43 KDMX 242206
RWRIA

WEATHER ROUNDUP FOR IOWA
NATIONAL WEATHER SERVICE DES MOINES IA
500 PM CDT THU MAY 24 2018

NOTE: "FAIR" INDICATES FEW OR NO CLOUDS BELOW 12,000 FEET WITH NO
SIGNIFICANT WEATHER AND/OR OBSTRUCTIONS TO VISIBILITY.

* - THESE STATIONS ARE NOT NWS STATIONS...THUS NOT UNDER NWS
QUALITY CONTROL.  THEY ALSO DO NOT REPORT WEATHER SUCH
AS PRECIPITATION OR FOG.

IAZ001>003-012>014-020>022-031>034-043>046-242300-
   NORTHWEST IOWA

CITY           SKY/WX    TMP DP  RH WIND       PRES   REMARKS
CARROLL *      MOSUNNY   90  63  40 S23G30    29.93F HX  90
CHEROKEE *     SUNNY     87  58  38 SW14      29.91F HX  86
DENISON *      MOSUNNY   88  64  45 S15G22    29.94F HX  89
LE MARS *      MOSUNNY   90  59  35 S20G28    29.89S HX  89
ORANGE CITY *  SUNNY     90  61  37 S16G28    29.91S HX  89
SHELDON *      CLOUDY    88  57  35 SW18G25   29.90S HX  86
SIOUX CITY     CLOUDY    91  60  35 S21G30    29.88F HX  90
SPENCER        SUNNY     90  60  36 S18G31    29.91F HX  89
STORM LAKE *   SUNNY     90  57  33 SW22G29   29.93S HX  88
$$

IAZ055>058-069>071-079>083-090>094-242300-
   SOUTHWEST IOWA

CITY           SKY/WX    TMP DP  RH WIND       PRES   REMARKS
ATLANTIC *     MOSUNNY   88  66  48 S17       29.94F HX  90
AUDUBON *      MOSUNNY   88  66  48 S13G18    29.96F HX  90
CLARINDA *     PTSUNNY   84  66  54 SW16G24   29.99R HX  86
COUNCIL BLFS * CLOUDY    84  68  58 S12G18    29.94F HX  87
CRESTON *      SUNNY     88  63  42 S17G24    30.00S HX  88
HARLAN  *      MOSUNNY   88  63  42 SW20G29   29.96F HX  88
LAMONI         SUNNY     85  63  47 S15G26    30.00F HX  86
RED OAK *      PTSUNNY   84  66  54 S15G22    29.95S HX  86
SHENANDOAH *   CLOUDY    86  64  48 S17G26    29.95S HX  87
$$

IAZ047>049-059>061-072>074-084-242300-
   CENTRAL IOWA

CITY           SKY/WX    TMP DP  RH WIND       PRES   REMARKS
AMES           CLOUDY    86  63  45 S18G28    29.96F HX  87
ANKENY *       SUNNY     88  64  45 S15G25    29.98F HX  89
BOONE *        MOSUNNY   88  59  37 S18G26    29.96F HX  87
CHARITON *     MOSUNNY   86  64  48 S14G22    30.00F HX  87
DES MOINES     MOSUNNY   88  63  43 S17G26    29.97F HX  89
GRINNELL*      SUNNY     87  61  40 S17G23    30.01F HX  87
KNOXVILLE *    SUNNY     86  63  45 S16       29.98F HX  87
MARSHALLTOWN   SUNNY     87  61  41 S21G30    29.97F HX  87
NEWTON *       SUNNY     88  63  42 S21G28    29.99F HX  88
PELLA *        SUNNY     87  62  42 S13G24    30.01F HX  87
PERRY *        FAIR      91  55  29 S18G25    29.96S HX  88
$$

IAZ004>006-015-016-023>025-035-036-242300-
   NORTH CENTRAL IOWA

CITY           SKY/WX    TMP DP  RH WIND       PRES   REMARKS
ALGONA *       PTSUNNY   86  64  48 S17G24    29.93S HX  87
CLARION *      MOSUNNY   90  61  37 S21       29.95F HX  89
ESTHERVILLE    MOSUNNY   87  61  41 S22G37    29.91F HX  87
FORT DODGE *   PTSUNNY   87  66  49 S17G25    29.94F HX  89
MASON CITY     MOSUNNY   88  61  40 S20G29    29.95F HX  88
FOREST CITY *  FAIR      86  61  42 S15G22    29.94F HX  86
WEBSTER CITY * MOSUNNY   90  61  37 S22       29.93F HX  89
IOWA FALLS *   FAIR      89  61  39 S21       29.97F HX  89
$$

IAZ007>011-017>019-026>030-037>042-050>054-066-242300-
   NORTHEAST IOWA

CITY           SKY/WX    TMP DP  RH WIND       PRES   REMARKS
CEDAR RAPIDS   FAIR      88  66  48 S16G24    30.00F HX  90
CHARLES CITY * FAIR      90  59  35 S20G28    29.96F HX  89
CLINTON *        N/A     87  63  44 S14       30.03F HX  88
DECORAH *      FAIR      86  63  45 S9G20     29.98F HX  87
DUBUQUE        FAIR      84  64  50 SW12      30.04F HX  85
MONTICELLO *   FAIR      88  63  42 S10G21    30.01F HX  88
OELWEIN *      FAIR      88  61  40 S18G28    30.00F HX  88
WATERLOO       FAIR      87  63  44 S18       29.96F HX  88
$$

IAZ064-065-067-068-078-242300-
   EAST CENTRAL IOWA

CITY           SKY/WX    TMP DP  RH WIND       PRES   REMARKS
DAVENPORT      FAIR      87  58  37 SW12      30.04F HX  86
IOWA CITY      FAIR      89  64  43 S9        30.02F HX  90
MT. PLEASANT * SUNNY     88  55  33 SE13      30.02F HX  86
MUSCATINE *    FAIR      88  63  42 SE12G18   30.02F HX  88
QUAD CITIES    FAIR      89  60  37 S9        30.02F HX  89
$$

IAZ062-063-075>077-085>089-095>099-242300-
   SOUTHEAST IOWA

CITY           SKY/WX    TMP DP  RH WIND       PRES   REMARKS
BURLINGTON     SUNNY     88  59  37 S9        30.03F HX  87
FAIRFIELD *    SUNNY     88  63  42 S14       30.01F HX  88
FORT MADISON * SUNNY     90  61  37 SW6       30.03F HX  89
KEOKUK *       SUNNY     88  59  37 S9G16     30.02F HX  87
OSKALOOSA *    FAIR      89  62  40 S13G20    30.00F HX  89
CENTERVILLE *  FAIR      86  64  48 S13       30.03F HX  87
OTTUMWA        MOSUNNY   89  64  43 S17       30.00F HX  90
WASHINGTON *   SUNNY     90  64  43 S13       30.02F HX  91
$$

ABBREVIATIONS USED IN REMARKS
   TC - TEMPERATURES IN CELSIUS
  WCI - WIND CHILL INDEX
   HX - HEAT INDEX
  VSB - VISIBILITY
$$




USA.gov is the U.S. government's official web portal to all federal, state and local government web resources and services.